Погода Нижний Тагил

Погода Нижний Тагил : погода сейчас, прогноз погоды и архив. Всё, что Вы хотите узнать о погоде Нижний Тагил!

Хотите узнать прогноз погоды Нижний Тагил? Тогда Вам сюда: Погода Нижний Тагил

Поиск расширенной информации на нашем сайте:

Другие новости

Новости СМИ2

Главная страница сайта

Новости сайта

02.10.2013

Напоминаем, что на нашем новом сайте вы можете получить высокодетализированные прогнозы погоды по пунктам России, СНГ и мира (включающие важные для авиации метеовеличины, такие как направление и скорость ветра, видимость, явления погоды, количество и форма облачности, нижняя и верхняя граница облачности), а также ознакомиться с разнообразными материалами по авиационной метеорологии и подборкой полезных ссылок на эту тему.

Сайт Метеоцентр.Азия посвящён разработке технологий оптимизации авиаметеорологического обслуживания, включая проектирование и перспективное создание нескольких автоматизированных авиаметеорологических систем:
- система выпуска высокодетальных прогностических карт явлений погоды для нижнего воздушного пространства по России и ближнему зарубежью;
- система верификации прогнозов TAF (выпускаемых синоптиками официальных АМСГ РФ и ближнего зарубежья) и AUTOTAF (выпускаемых сайтом Метеоцентр.Азия) - выявление ошибок, онлайн-сопоставление с фактической погодой METAR, автоматическое внесение коррективов в прогнозы при резком отклонении фактической погоды от прогноза, подсчёт оправдываемости прогнозов по элементам и в целом;
- система обработки, анализа и отображения авиаметеорологической информации для применения провайдерами метеорологической информации.

Рекомендуем: Сравнить цены на лазерная гравировка.

Погода Нижний Тагил - сегодня

Время (UTC), дата Ветер
(°,м/с) 
Видим.   Явления Облачность Т
(°С)
Тd
(°С)
f(%) Тe
(°С)
Pmin
(гПа)
dP
(гПа)
Po
(мм)
O2
(г/м3)
Тmin Tmax R s Состояние
почвы
12 30.11.16 060 (СВ) 2000 м  снег  10/0 средняя 
[As op]
-7.1 -8.7 88 -10  1007.5  -0.4  731  303           
15 30.11.16 340 (С) 4000 м  слаб. снег  10/0 средняя 
[As op]
-10.9 -12.7 87 -15  1007.8  -0.3  731  308    -1.5     
18 30.11.16 360 (С) 2000 м  снег  10/10 300 м 
[Ns]
-14.5 -16.8 83 -19  1008.6  0.3  731  312           
21 30.11.16 350 (С) 20000 м  {снег}  10/8 600 м средняя 
[Sc|As op]
-15.9 -18.6 80 -21  1010.6  1.8  732  315           
00 01.12.16 300 (СЗ) 20000 м  {снег}  10/4 600 м средняя 
[Sc|As op]
-16.5 -19.1 80 -20  1013.1  2.3  734  316           
03 01.12.16 310 (СЗ) 20000 м  в посл. час снег  8/8 600 м 
[Sc]
-16.8 -19.3 81 -19  1015  1.8  735  317  -16.9    36  равномерный
сухой снег
100% 
06 01.12.16 140 (ЮВ) 4000 м  слаб. снег  10/5 600 м средняя 
[Sc|As op]
-15.9 -18.2 82 -16  1016.8  1.8  737  317  -19.2         
09 01.12.16 260 (З) 20000 м  {снег}  8/0 средняя 
[Ac As]
-12.2 -15.1 79 -14  1017.2  0.9  737  312           
12 01.12.16 160 (Ю) 20000 м  {снег}  9/9 600 м 
[Sc]
-15.2 -17.1 85 -15  1019.3  1.6  739  317           
15 01.12.16 200 (Ю) 20000 м    8/8 600 м 
[Sc]
-16.9 -19 84 -17  1021.4  1.8  740  319    -11.5  0.0     
18 01.12.16 250 (З) 20000 м    10/10 600 м 
[Sc]
-14.7 -17 83 -17  1022.8  1.6  741  317           
21 01.12.16 210 (ЮЗ) 20000 м    4/0 средняя 
[Ac und]
-18.3 -20.4 84 -19  1024.9  1.5  742  322           
00 02.12.16 200 (Ю) 20000 м    3/0 средняя 
[Ac trans]
-15.6 -17.8 83 -16  1025.6  743  319           
03 02.12.16 180 (Ю) 20000 м    5/0 средняя 
[Ac lent]
-14.8 -17.1 83 -17  1026  0.5  744  318  -19.8      33  равномерный
сухой снег
100% 
06 02.12.16 180 (Ю) 20000 м    4/0 средняя 
[Ac trans]
-16 -18.6 80 -18  1027.3  1.2  744  320           
09 02.12.16 190 (Ю) 20000 м    5/0 средняя, верхняя 
[Ac und|Cc]
-14.4 -17.6 77 -14  1027.8  0.6  745  318           
12 02.12.16 110 (В) 20000 м    1/0 средняя 
[Ac und]
-18.6 -20.4 86 -21  1027.7  -0.6  744  323           
15 02.12.16 тихо ()   20000 м    ясно 
-20 -21.9 85 -20  1027.9  -0.1  744  325    -14.3       
18 02.12.16 130 (ЮВ) 20000 м    ясно 
-19.4 -21.5 83 -20  1027  -0.8  744  324           
21 02.12.16 130 (ЮВ) 20000 м    ясно 
-20.7 -23.1 81 -21  1026.5  -0.7  743  326           
00 03.12.16 110 (В) 20000 м    ясно 
-22.7 -25.6 77 -26  1025.2  -1.5  742  328           
03 03.12.16 120 (ЮВ) 20000 м    ясно 
-20.5 -23 80 -23  1023.1  -1.7  741  324  -23      36  равномерный
сухой снег
100% 
06 03.12.16 130 (ЮВ) 20000 м    10/0 средняя 
[As op]
-17.8 -20.1 82 -20  1020.6  -2.1  739  320           
09 03.12.16 160 (Ю) 20000 м    10/0 средняя 
[As op]
-15.1 -17.2 84 -19  1018.3  -1.9  738  316           
12 03.12.16 060 (СВ) 20000 м    10/10 600 м 
[Sc]
-14.3 -16.3 85 -16  1014.6  -3.4  735  314           
Время (UTC), дата Ветер
(°,м/с) 
Видим.   Явления Облачность Т
(°С)
Тd
(°С)
f(%) Тe
(°С)
Pmin
(гПа)
dP
(гПа)
Po
(мм)
O2
(г/м3)
Тmin Tmax R s Состояние
почвы

Для получения пояснительной информации подведите курсор к названию столбца.

ПОГОДА Нижний Тагил - архив

Всё, что Вы хотите узнать о погоде Нижний Тагил - удобно и подробно!

Выберите нужную дату (начиная с 1 января 2015* года) и нажмите кнопку "Найти".
Будут отображены архивные сводки погоды по пункту Нижний Тагил, начиная с указанной даты.


Отображать данные в формате CSV (для использования в таблицах Excel)


Внимание! Наш архив погоды предназначен исключительно для личного некоммерческого использования в познавательных целях. Если Вам необходимы официальные справки о состоянии погоды (для производственных, юридических, коммерческих и т.п. целей), обращайтесь в органы Росгидромета.

*Примечание: данная дата относится к архиву по метеостанциям СССР (Россия, СНГ, Балтия).
Архив по метеостанциям Зарубежной Европы и Азии (кроме Китая) хранится 10 дней, по другим регионам земного шара (Китай, Африка, Америка, Австралия, Океания) - 1 день.

Нижний Тагил - район местоположения метеостанции


Название, широта, долгота, высота метеостанции:
Нижний Тагил 57.9°ш. 60.1°д. 260 м над ур. моря [Российская Федерация]

Дополнительная информация

В oтличие oт бoльшинства пoгoдных сайтoв мы публикуем пoдрoбную метеoинфoрмацию в детальнoм прoфессиoнальнoм фoрмате.

Характеристики температуры и влажнoсти вoздуха измеряются на высoте 2 м в тени вдали oт зданий и деревьев.
Скoрoсть ветра измеряется на высoте 10 м (на урoвне рoста челoвека скoрoсть ветра ниже в 1.5-2 раза). Если метеoстанция нахoдится в гoрoде или в лесу, тo скoрoсть ветра занижена на 2-4 м/с пo сравнению с oткрытым местoм. Скoрoсть ветра над акватoриями крупных рек и oзёр, а также на вершинах хoлмoв на 2-5 м/с выше, чем в oбычных услoвиях.
Атмoсфернoе давление в разных тoчках местнoсти мoжет значительнo oтличаться oт давления на метеoстанции, в зависимoсти oт услoвий рельефа (при пoдъёме на 10 м давление пoнижается примернo на 1 мм рт.ст.).